Flag Weather past 2 weeks in Dudley, England, United Kingdom

Now
48 °F

Fog.


Feels Like: 46 °F
Forecast: 44 / 50 °F
Wind: 6 mph from East

Location: Birmingham / Airport

Current Time: Nov 29, 2014 at 6:30:00 AM

Latest Report: Nov 29, 2014 at 5:50 AM


Visibility: 3 mi

Pressure: 29.80 "Hg

Humidity: 100%

Dew point: 48 °F

Location of DudleyLocation

Historic Weather in Dudley — Graph

°F

Dudley temperature yesterday

Maximum temperature yesterday: 52 °F (at 10:20 AM)
Minimum temperature yesterday: 46 °F (at 12:20 AM)
Average temperature yesterday: 50 °F

Past Weeks' High & Low Weather Summary

 TemperatureHumidityPressure
High57 °F (Nov 22, 11:50 AM)100% (Nov 14, 8:50 AM)30.33 "Hg (Nov 14, 8:50 AM)
Low27 °F (Nov 25, 6:20 AM)71% (Nov 24, 2:20 PM)29.36 "Hg (Nov 14, 6:20 AM)
Average45 °F94%29.85 "Hg
* Reported Nov 14 5:20 AM — Nov 29 5:20 AM, Dudley, Weather by CustomWeather, © 2014

Note: Actual official high and low records may vary slightly from our data, if they occured in-between our weather recording intervals... More about our weather records

Advertising

Dudley weather history for previous 24 hours

 ConditionsComfort  
Time TempWeatherWind HumidityBarometerVisibility
5:20 AM
Nov 29
48 °FFog.7 mph100%29.77 "Hg2 mi
4:50 AM48 °FFog.7 mph100%29.77 "Hg2 mi
4:20 AM50 °FLight rain. Fog.8 mph94%29.77 "Hg2 mi
3:50 AM48 °FDrizzle. Mostly cloudy.7 mph100%29.77 "Hg2 mi
3:20 AM48 °FLight rain. Mostly cloudy.7 mph100%29.77 "Hg2 mi
2:50 AM50 °FLight rain. Passing clouds.7 mph94%29.77 "Hg2 mi
2:20 AM50 °FDrizzle. Mostly cloudy.7 mph94%29.77 "Hg2 mi
1:50 AM48 °FFog.6 mph100%29.77 "Hg2 mi
1:20 AM48 °FLight rain. Passing clouds.7 mph100%29.77 "Hg2 mi
12:50 AM48 °FLight rain. Partly cloudy.7 mph100%29.74 "Hg2 mi
12:20 AM50 °FRain. Partly cloudy.7 mph94%29.77 "Hg2 mi
11:50 PM
Nov 28
50 °FPassing clouds.6 mph94%29.77 "Hg2 mi
11:20 PM50 °FPassing clouds.6 mph94%29.74 "Hg2 mi
10:50 PM50 °FLight rain. Mostly cloudy.7 mph94%29.74 "Hg2 mi
10:20 PM50 °FLow clouds.6 mph94%29.74 "Hg3 mi
9:50 PM50 °FLow clouds.9 mph94%29.74 "Hg3 mi
9:20 PM50 °FLow clouds.12 mph94%29.74 "Hg3 mi
8:50 PM50 °FLow clouds.10 mph94%29.74 "Hg3 mi
8:20 PM50 °FLow clouds.9 mph88%29.74 "Hg4 mi
7:50 PM50 °FLow clouds.9 mph88%29.74 "Hg4 mi
7:20 PM50 °FLow clouds.9 mph88%29.71 "Hg4 mi
6:50 PM50 °FLow clouds.12 mph94%29.71 "Hg3 mi
6:20 PM50 °FLow clouds.8 mph94%29.71 "Hg4 mi
5:50 PM50 °FLow clouds.10 mph94%29.68 "Hg3 mi
5:20 PM50 °FFog.10 mph94%29.68 "Hg3 mi
4:50 PM50 °FFog.9 mph94%29.68 "Hg2 mi
4:20 PM50 °FFog.8 mph94%29.68 "Hg3 mi
3:50 PM50 °FFog.9 mph100%29.65 "Hg3 mi
3:20 PM52 °FFog.9 mph94%29.65 "Hg3 mi
2:50 PM52 °FFog.10 mph94%29.65 "Hg3 mi
2:20 PM52 °FFog.10 mph94%29.65 "Hg2 mi
1:50 PM52 °FFog.9 mph94%29.62 "Hg2 mi
1:20 PM52 °FFog.9 mph94%29.62 "Hg2 mi
12:50 PM52 °FMostly cloudy.8 mph94%29.62 "Hg4 mi
12:20 PM52 °FPartly sunny.9 mph88%29.62 "Hg5 mi
11:50 AM52 °FPartly sunny.7 mph88%29.65 "HgN/A
11:20 AM52 °FBroken clouds.9 mph88%29.62 "HgN/A
10:50 AM52 °FPartly sunny.10 mph88%29.62 "Hg5 mi
10:20 AM52 °FMostly cloudy.9 mph88%29.62 "Hg4 mi
9:50 AM50 °FPartly sunny.8 mph94%29.62 "Hg4 mi
9:20 AM50 °FPartly sunny.8 mph94%29.62 "Hg4 mi
8:50 AM50 °FMostly cloudy.8 mph94%29.62 "Hg4 mi
8:20 AM50 °FBroken clouds.9 mph94%29.62 "Hg4 mi
7:50 AM50 °FPartly sunny.9 mph94%29.62 "Hg4 mi
7:20 AM50 °FPassing clouds.9 mph94%29.59 "Hg4 mi
6:50 AM50 °FMostly cloudy.8 mph94%29.59 "Hg3 mi
6:20 AM50 °FFog.8 mph94%29.59 "Hg2 mi
Weather by CustomWeather, © 2014

See weather overviewHow to use our weather pages